This is the latest recevied weather packets stored in our database for station/object N0QV. If no packets are shown the sender has not sent any weather packets the latest 10 day(s).
| Time | Temp. | Humidity | Pressure | Rain* | Wind** | Luminosity | Snow |
|---|---|---|---|---|---|---|---|
| 1788462399 | 30° C | 65% | 1009 hPa | 0 mm | - | 577 W/m² | - |
| 1788462099 | 30° C | 67% | 1009 hPa | 0 mm | - | 549 W/m² | - |
| 1788461794 | 30° C | 69% | 1009 hPa | 0 mm | - | 525 W/m² | - |
| 1788461489 | 29.44° C | 71% | 1008.8 hPa | 0 mm | - | 121 W/m² | - |
| 1788461186 | 28.89° C | 71% | 1009.1 hPa | 0 mm | - | 147 W/m² | - |
| 1788460882 | 28.89° C | 73% | 1009.2 hPa | 0 mm | - | 250 W/m² | - |
| 1788460580 | 28.33° C | 76% | 1009.1 hPa | 0 mm | - | 169 W/m² | - |
| 1788460275 | 27.78° C | 76% | 1009.2 hPa | 0 mm | - | 163 W/m² | - |
| 1788459975 | 27.22° C | 78% | 1009.5 hPa | 0 mm | - | 311 W/m² | - |
| 1788459671 | 26.67° C | 81% | 1008.9 hPa | 0 mm | - | 317 W/m² | - |
| 1788459390 | 26.67° C | 83% | 1009.1 hPa | 0 mm | - | 227 W/m² | - |
| 1788459069 | 25.56° C | 86% | 1008.9 hPa | 0 mm | - | 134 W/m² | - |
| 1788458764 | 25° C | 88% | 1008.9 hPa | 0 mm | - | 237 W/m² | - |
| 1788458459 | 24.44° C | 88% | 1009 hPa | 7.87 mm | - | 233 W/m² | - |
| 1788458158 | 25° C | 87% | 1008.9 hPa | 14.99 mm | - | 187 W/m² | - |
| 1788457858 | 26.11° C | 81% | 1009.4 hPa | 7.11 mm | - | 85 W/m² | - |
| 1788457552 | 26.67° C | 75% | 1009.2 hPa | 0 mm | - | 38 W/m² | - |
| 1788457247 | 27.22° C | 72% | 1009.3 hPa | 0 mm | - | 30 W/m² | - |
| 1788456942 | 27.78° C | 71% | 1009.3 hPa | 0 mm | - | 29 W/m² | - |
| 1788456639 | 27.78° C | 69% | 1009.6 hPa | 0 mm | - | 41 W/m² | - |
| 1788456338 | 28.33° C | 69% | 1009.8 hPa | 0 mm | - | 71 W/m² | - |
| 1788456034 | 28.89° C | 68% | 1009.6 hPa | 0 mm | - | 98 W/m² | - |
| 1788455729 | 30° C | 65% | 1009.4 hPa | 0 mm | - | 173 W/m² | - |
| 1788455424 | 30° C | 65% | 1009.3 hPa | 0 mm | - | 210 W/m² | - |
| 1788455123 | 30° C | 63% | 1009.3 hPa | 0 mm | - | 383 W/m² | - |
* Rain latest hour (hover to see other rain measurements)
** Current wind speed in m/s (hover to see current wind gust speed)